• în România
  • Lista ţărilor
  • Pe 7 zile
  • Temperatura apei
  • Hartă satelitară
  • Meteo pe hartă
  • Widget-uri
  • user-avatar
    Intrare

    Meteo pe oră la Neuquén

    Astăzi, 27 Iulie, Joi

    Timp Temperatura Precipitaţii Vânt Presiune Umiditate
    00:00 +10°C° 0 mm 3 m/s 731 mmHg 67%
    01:00 +10°C° 0 mm 2 m/s 731 mmHg 75%
    02:00 +9°C° 0 mm 2 m/s 731 mmHg 75%
    03:00 +9°C° 0 mm 2 m/s 730 mmHg 76%
    04:00 +10°C° 0 mm 1 m/s 730 mmHg 76%
    05:00 +9°C° 0 mm 1 m/s 730 mmHg 73%
    06:00 +9°C° 0 mm 1 m/s 730 mmHg 70%
    07:00 +8°C° 0 mm 2 m/s 731 mmHg 51%
    08:00 +10°C° 0 mm 2 m/s 731 mmHg 42%
    09:00 +13°C° 0 mm 2 m/s 731 mmHg 33%
    10:00 +15°C° 0 mm 2 m/s 731 mmHg 24%
    11:00 +16°C° 0 mm 2 m/s 731 mmHg 20%
    12:00 +18°C° 0 mm 3 m/s 731 mmHg 16%
    13:00 +19°C° 0 mm 3 m/s 730 mmHg 12%
    14:00 +19°C° 0 mm 3 m/s 730 mmHg 13%
    15:00 +18°C° 0 mm 3 m/s 730 mmHg 14%
    16:00 +18°C° 0 mm 2 m/s 730 mmHg 15%
    17:00 +17°C° 0 mm 2 m/s 730 mmHg 16%
    18:00 +16°C° 0 mm 2 m/s 730 mmHg 18%
    19:00 +15°C° 0 mm 2 m/s 731 mmHg 19%
    20:00 +13°C° 0 mm 3 m/s 731 mmHg 22%
    21:00 +12°C° 0 mm 3 m/s 731 mmHg 25%
    22:00 +12°C° 0 mm 3 m/s 732 mmHg 27%
    23:00 +11°C° 0 mm 3 m/s 731 mmHg 26%

    Mâine, 28 Iulie, Vineri

    Timp Temperatura Precipitaţii Vânt Presiune Umiditate
    00:00 +11°C° 0 mm 3 m/s 731 mmHg 26%
    01:00 +11°C° 0 mm 3 m/s 731 mmHg 25%
    02:00 +10°C° 0 mm 2 m/s 731 mmHg 24%
    03:00 +10°C° 0 mm 2 m/s 731 mmHg 24%
    04:00 +10°C° 0 mm 2 m/s 731 mmHg 23%
    05:00 +10°C° 0 mm 2 m/s 731 mmHg 25%
    06:00 +10°C° 0 mm 2 m/s 731 mmHg 27%
    07:00 +9°C° 0 mm 2 m/s 731 mmHg 29%
    08:00 +12°C° 0 mm 2 m/s 732 mmHg 30%
    09:00 +12°C° 0 mm 3 m/s 732 mmHg 31%
    10:00 +14°C° 0 mm 3 m/s 733 mmHg 32%
    11:00 +14°C° 0 mm 3 m/s 733 mmHg 34%
    12:00 +14°C° 0 mm 4 m/s 733 mmHg 37%
    13:00 +15°C° 0 mm 5 m/s 732 mmHg 39%
    14:00 +15°C° 0 mm 5 m/s 733 mmHg 40%
    15:00 +14°C° 0 mm 4 m/s 733 mmHg 41%
    16:00 +14°C° 0 mm 4 m/s 733 mmHg 42%
    17:00 +13°C° 0 mm 5 m/s 734 mmHg 42%
    18:00 +12°C° 0 mm 5 m/s 735 mmHg 43%
    19:00 +10°C° 0 mm 5 m/s 735 mmHg 43%
    20:00 +9°C° 0 mm 5 m/s 736 mmHg 43%
    21:00 +8°C° 0 mm 6 m/s 737 mmHg 43%
    22:00 +7°C° 0 mm 6 m/s 737 mmHg 44%
    23:00 +6°C° 0 mm 5 m/s 738 mmHg 44%

    Poimâine, 29 Iulie, Sâmbătă

    Timp Temperatura Precipitaţii Vânt Presiune Umiditate
    00:00 +6°C° 0 mm 4 m/s 738 mmHg 44%
    01:00 +5°C° 0 mm 3 m/s 738 mmHg 44%
    02:00 +5°C° 0 mm 3 m/s 738 mmHg 45%
    03:00 +5°C° 0 mm 3 m/s 739 mmHg 46%
    04:00 +5°C° 0 mm 3 m/s 739 mmHg 48%
    05:00 +5°C° 0 mm 4 m/s 739 mmHg 50%
    06:00 +5°C° 0 mm 4 m/s 740 mmHg 52%
    07:00 +4°C° 0 mm 4 m/s 740 mmHg 54%
    08:00 +6°C° 0 mm 4 m/s 741 mmHg 47%
    09:00 +7°C° 0 mm 5 m/s 741 mmHg 41%
    10:00 +8°C° 0 mm 5 m/s 742 mmHg 34%
    11:00 +10°C° 0 mm 4 m/s 741 mmHg 32%
    12:00 +10°C° 0 mm 4 m/s 741 mmHg 30%
    13:00 +11°C° 0 mm 3 m/s 741 mmHg 28%
    14:00 +11°C° 0 mm 3 m/s 741 mmHg 29%
    15:00 +10°C° 0 mm 3 m/s 741 mmHg 30%
    16:00 +10°C° 0 mm 3 m/s 741 mmHg 30%
    17:00 +9°C° 0 mm 3 m/s 742 mmHg 33%
    18:00 +9°C° 0 mm 3 m/s 742 mmHg 36%
    19:00 +8°C° 0 mm 3 m/s 743 mmHg 39%
    20:00 +7°C° 0 mm 3 m/s 744 mmHg 40%
    21:00 +7°C° 0 mm 3 m/s 744 mmHg 40%
    22:00 +5°C° 0 mm 3 m/s 745 mmHg 41%
    23:00 +5°C° 0 mm 3 m/s 745 mmHg 42%

    30 Iulie, Duminică

    Timp Temperatura Precipitaţii Vânt Presiune Umiditate
    00:00 +4°C° 0 mm 3 m/s 745 mmHg 43%
    01:00 +4°C° 0 mm 3 m/s 745 mmHg 44%
    02:00 +4°C° 0 mm 3 m/s 745 mmHg 47%
    03:00 +3°C° 0 mm 3 m/s 745 mmHg 50%
    04:00 +3°C° 0 mm 4 m/s 745 mmHg 53%
    05:00 +3°C° 0 mm 4 m/s 745 mmHg 56%
    06:00 +1°C° 0 mm 4 m/s 745 mmHg 59%
    07:00 +1°C° 0 mm 4 m/s 746 mmHg 62%
    08:00 +3°C° 0 mm 4 m/s 746 mmHg 58%
    09:00 +5°C° 0 mm 5 m/s 746 mmHg 54%
    10:00 +5°C° 0 mm 6 m/s 746 mmHg 49%
    11:00 +7°C° 0 mm 6 m/s 745 mmHg 48%
    12:00 +7°C° 0 mm 6 m/s 745 mmHg 46%
    13:00 +8°C° 0 mm 6 m/s 744 mmHg 45%
    14:00 +8°C° 0 mm 6 m/s 743 mmHg 45%
    15:00 +8°C° 0 mm 6 m/s 743 mmHg 46%
    16:00 +8°C° 0 mm 6 m/s 743 mmHg 47%
    17:00 +7°C° 0 mm 6 m/s 743 mmHg 48%
    18:00 +7°C° 0 mm 5 m/s 742 mmHg 49%
    19:00 +7°C° 0 mm 5 m/s 742 mmHg 50%
    20:00 +7°C° 0 mm 5 m/s 742 mmHg 51%
    21:00 +7°C° 0 mm 5 m/s 742 mmHg 52%
    22:00 +7°C° 0 mm 5 m/s 742 mmHg 53%
    23:00 +6°C° 0 mm 4 m/s 741 mmHg 58%

    31 Iulie, Luni

    Timp Temperatura Precipitaţii Vânt Presiune Umiditate
    00:00 +6°C° 0 mm 4 m/s 741 mmHg 62%
    01:00 +6°C° 0 mm 4 m/s 740 mmHg 67%
    02:00 +6°C° 0 mm 4 m/s 740 mmHg 70%
    03:00 +7°C° 0 mm 3 m/s 739 mmHg 73%
    04:00 +7°C° 0 mm 3 m/s 739 mmHg 76%
    05:00 +5°C° 0 mm 3 m/s 739 mmHg 78%
    06:00 +5°C° 0 mm 3 m/s 739 mmHg 79%
    07:00 +5°C° 0 mm 3 m/s 739 mmHg 81%
    08:00 +7°C° 0 mm 3 m/s 739 mmHg 78%
    09:00 +7°C° 0 mm 3 m/s 739 mmHg 74%
    10:00 +8°C° 0 mm 3 m/s 738 mmHg 71%
    11:00 +9°C° 0 mm 3 m/s 738 mmHg 69%
    12:00 +9°C° 0 mm 2 m/s 737 mmHg 66%
    13:00 +9°C° 0 mm 2 m/s 737 mmHg 64%
    14:00 +10°C° 0 mm 2 m/s 737 mmHg 63%
    15:00 +10°C° 0 mm 2 m/s 737 mmHg 63%
    16:00 +10°C° 0 mm 2 m/s 737 mmHg 62%
    17:00 +10°C° 0 mm 1 m/s 737 mmHg 64%
    18:00 +10°C° 0 mm 1 m/s 737 mmHg 67%
    19:00 +10°C° 0 mm 1 m/s 737 mmHg 69%
    20:00 +9°C° 0 mm 1 m/s 737 mmHg 71%
    21:00 +9°C° 0 mm 1 m/s 737 mmHg 74%
    22:00 +8°C° 0 mm 1 m/s 737 mmHg 76%
    23:00 +8°C° 0 mm 1 m/s 737 mmHg 78%

    1 August, Marţi

    Timp Temperatura Precipitaţii Vânt Presiune Umiditate
    00:00 +7°C° 0 mm 1 m/s 737 mmHg 81%
    01:00 +7°C° 0 mm 1 m/s 737 mmHg 83%
    02:00 +7°C° 0 mm 1 m/s 737 mmHg 85%
    03:00 +6°C° 0 mm 1 m/s 737 mmHg 86%
    04:00 +5°C° 0 mm 0 m/s 736 mmHg 88%
    05:00 +5°C° 0 mm 0 m/s 737 mmHg 88%
    06:00 +5°C° 0 mm 0 m/s 737 mmHg 89%
    07:00 +5°C° 0 mm 0 m/s 737 mmHg 89%
    08:00 +7°C° 0 mm 1 m/s 737 mmHg 81%
    09:00 +9°C° 0 mm 1 m/s 737 mmHg 73%
    10:00 +11°C° 0 mm 1 m/s 737 mmHg 65%
    11:00 +12°C° 0 mm 2 m/s 737 mmHg 61%
    12:00 +13°C° 0 mm 2 m/s 737 mmHg 56%
    13:00 +13°C° 0 mm 3 m/s 736 mmHg 52%
    14:00 +13°C° 0 mm 3 m/s 736 mmHg 50%
    15:00 +13°C° 0 mm 3 m/s 736 mmHg 49%
    16:00 +13°C° 0 mm 3 m/s 736 mmHg 47%
    17:00 +12°C° 0 mm 3 m/s 737 mmHg 51%
    18:00 +12°C° 0 mm 2 m/s 737 mmHg 54%
    19:00 +10°C° 0 mm 2 m/s 737 mmHg 58%
    20:00 +10°C° 0 mm 3 m/s 738 mmHg 58%
    21:00 +10°C° 0 mm 3 m/s 738 mmHg 57%
    22:00 +8°C° 0 mm 4 m/s 738 mmHg 57%
    23:00 +8°C° 0 mm 4 m/s 738 mmHg 57%
    Arată mai mult